• In Uzbekistan
  • List of Countries
  • For 7 days
  • Water Temperature
  • Satellite Maps
  • Weather Map
  • Weather Widgets
  • user-avatar
    Login

    Hourly Weather Albany

    Today, 16 December, Saturday

    Time Temperature Precipitation Wind Pressure Humidity
    00:00 +18°C° 0 mm 1 mps 754 mmHg 89%
    01:00 +18°C° 0 mm 1 mps 754 mmHg 90%
    02:00 +17°C° 0 mm 2 mps 753 mmHg 88%
    03:00 +16°C° 0 mm 2 mps 753 mmHg 89%
    04:00 +16°C° 0 mm 2 mps 753 mmHg 89%
    05:00 +16°C° 0 mm 2 mps 753 mmHg 90%
    06:00 +18°C° 0 mm 2 mps 753 mmHg 80%
    07:00 +20°C° 0 mm 2 mps 753 mmHg 71%
    08:00 +23°C° 0 mm 2 mps 753 mmHg 61%
    09:00 +25°C° 0 mm 2 mps 752 mmHg 54%
    10:00 +27°C° 0 mm 2 mps 751 mmHg 47%
    11:00 +29°C° 0 mm 2 mps 751 mmHg 40%
    12:00 +29°C° 0 mm 2 mps 750 mmHg 40%
    13:00 +29°C° 0 mm 3 mps 749 mmHg 41%
    14:00 +29°C° 0 mm 4 mps 749 mmHg 41%
    15:00 +27°C° 0 mm 4 mps 748 mmHg 48%
    16:00 +26°C° 0 mm 4 mps 748 mmHg 54%
    17:00 +25°C° 0 mm 4 mps 747 mmHg 61%
    18:00 +22°C° 0 mm 4 mps 747 mmHg 67%
    19:00 +21°C° 0 mm 4 mps 747 mmHg 73%
    20:00 +20°C° 0 mm 4 mps 747 mmHg 79%
    21:00 +19°C° 0.1 mm 4 mps 747 mmHg 79%
    22:00 +19°C° 0.1 mm 4 mps 747 mmHg 78%
    23:00 +19°C° 0.1 mm 5 mps 747 mmHg 78%

    Tomorrow, 17 December, Sunday

    Time Temperature Precipitation Wind Pressure Humidity
    00:00 +17°C° 0.1 mm 5 mps 746 mmHg 78%
    01:00 +17°C° 0.1 mm 6 mps 746 mmHg 77%
    02:00 +16°C° 0.1 mm 7 mps 745 mmHg 77%
    03:00 +16°C° 0.2 mm 7 mps 745 mmHg 76%
    04:00 +15°C° 0.2 mm 7 mps 745 mmHg 75%
    05:00 +15°C° 0.2 mm 8 mps 745 mmHg 74%
    06:00 +15°C° 0.1 mm 8 mps 745 mmHg 67%
    07:00 +16°C° 0.1 mm 8 mps 745 mmHg 59%
    08:00 +16°C° 0.1 mm 9 mps 746 mmHg 51%
    09:00 +18°C° 0 mm 9 mps 745 mmHg 45%
    10:00 +19°C° 0 mm 9 mps 745 mmHg 38%
    11:00 +22°C° 0 mm 9 mps 745 mmHg 32%
    12:00 +22°C° 0 mm 9 mps 744 mmHg 33%
    13:00 +21°C° 0 mm 9 mps 743 mmHg 35%
    14:00 +21°C° 0 mm 9 mps 743 mmHg 36%
    15:00 +21°C° 0.1 mm 9 mps 742 mmHg 37%
    16:00 +19°C° 0.1 mm 9 mps 742 mmHg 39%
    17:00 +19°C° 0.1 mm 9 mps 742 mmHg 40%
    18:00 +17°C° 0.7 mm 9 mps 742 mmHg 52%
    19:00 +15°C° 0.7 mm 9 mps 742 mmHg 64%
    20:00 +12°C° 0.7 mm 9 mps 742 mmHg 75%
    21:00 +12°C° 0.1 mm 9 mps 741 mmHg 74%
    22:00 +12°C° 0.1 mm 8 mps 741 mmHg 73%
    23:00 +12°C° 0.1 mm 8 mps 741 mmHg 72%

    Day after tomorrow, 18 December, Monday

    Time Temperature Precipitation Wind Pressure Humidity
    00:00 +12°C° 0.1 mm 8 mps 741 mmHg 72%
    01:00 +12°C° 0.1 mm 8 mps 740 mmHg 72%
    02:00 +12°C° 0.1 mm 8 mps 740 mmHg 72%
    03:00 +12°C° 0.2 mm 7 mps 740 mmHg 73%
    04:00 +12°C° 0.2 mm 7 mps 740 mmHg 73%
    05:00 +13°C° 0.2 mm 6 mps 740 mmHg 74%
    06:00 +14°C° 0.3 mm 7 mps 741 mmHg 69%
    07:00 +15°C° 0.3 mm 7 mps 741 mmHg 65%
    08:00 +16°C° 0.3 mm 8 mps 742 mmHg 60%
    09:00 +18°C° 0.2 mm 8 mps 743 mmHg 56%
    10:00 +20°C° 0.2 mm 8 mps 743 mmHg 51%
    11:00 +21°C° 0.2 mm 9 mps 744 mmHg 47%
    12:00 +21°C° 0.1 mm 9 mps 744 mmHg 47%
    13:00 +22°C° 0.1 mm 9 mps 745 mmHg 48%
    14:00 +22°C° 0.1 mm 9 mps 746 mmHg 48%
    15:00 +21°C° 0 mm 9 mps 746 mmHg 51%
    16:00 +21°C° 0 mm 9 mps 747 mmHg 55%
    17:00 +21°C° 0 mm 9 mps 748 mmHg 58%
    18:00 +18°C° 0.1 mm 8 mps 749 mmHg 64%
    19:00 +17°C° 0.1 mm 8 mps 749 mmHg 69%
    20:00 +16°C° 0.1 mm 7 mps 750 mmHg 75%
    21:00 +16°C° 0.1 mm 7 mps 751 mmHg 77%
    22:00 +16°C° 0.1 mm 7 mps 751 mmHg 78%
    23:00 +15°C° 0.1 mm 7 mps 752 mmHg 80%

    19 December, Tuesday

    Time Temperature Precipitation Wind Pressure Humidity
    00:00 +16°C° 0.2 mm 8 mps 752 mmHg 79%
    01:00 +16°C° 0.2 mm 8 mps 752 mmHg 78%
    02:00 +16°C° 0.2 mm 8 mps 752 mmHg 77%
    03:00 +16°C° 0.1 mm 8 mps 753 mmHg 77%
    04:00 +16°C° 0.1 mm 8 mps 753 mmHg 78%
    05:00 +16°C° 0.1 mm 8 mps 754 mmHg 78%
    06:00 +16°C° 0.1 mm 8 mps 754 mmHg 77%
    07:00 +16°C° 0.1 mm 8 mps 755 mmHg 75%
    08:00 +16°C° 0.1 mm 7 mps 756 mmHg 73%
    09:00 +17°C° 0 mm 7 mps 757 mmHg 67%
    10:00 +19°C° 0 mm 6 mps 757 mmHg 61%
    11:00 +20°C° 0 mm 6 mps 757 mmHg 56%
    12:00 +21°C° 0 mm 6 mps 758 mmHg 54%
    13:00 +21°C° 0 mm 6 mps 758 mmHg 52%
    14:00 +21°C° 0 mm 5 mps 758 mmHg 51%
    15:00 +21°C° 0 mm 5 mps 758 mmHg 53%
    16:00 +20°C° 0 mm 5 mps 758 mmHg 55%
    17:00 +20°C° 0 mm 5 mps 758 mmHg 58%
    18:00 +18°C° 0 mm 4 mps 759 mmHg 63%
    19:00 +17°C° 0 mm 4 mps 760 mmHg 68%
    20:00 +16°C° 0 mm 3 mps 760 mmHg 73%
    21:00 +14°C° 0 mm 3 mps 760 mmHg 76%
    22:00 +15°C° 0 mm 2 mps 761 mmHg 79%
    23:00 +14°C° 0 mm 2 mps 761 mmHg 81%

    20 December, Wednesday

    Time Temperature Precipitation Wind Pressure Humidity
    00:00 +14°C° 0 mm 1 mps 761 mmHg 83%
    01:00 +14°C° 0 mm 1 mps 761 mmHg 84%
    02:00 +13°C° 0 mm 1 mps 760 mmHg 86%
    03:00 +13°C° 0 mm 1 mps 760 mmHg 87%
    04:00 +13°C° 0 mm 1 mps 761 mmHg 88%
    05:00 +13°C° 0 mm 1 mps 761 mmHg 89%
    06:00 +15°C° 0 mm 1 mps 761 mmHg 79%
    07:00 +18°C° 0 mm 1 mps 761 mmHg 69%
    08:00 +19°C° 0 mm 2 mps 762 mmHg 60%
    09:00 +21°C° 0 mm 2 mps 761 mmHg 53%
    10:00 +23°C° 0 mm 2 mps 761 mmHg 46%
    11:00 +25°C° 0 mm 2 mps 761 mmHg 40%
    12:00 +26°C° 0 mm 3 mps 760 mmHg 40%
    13:00 +26°C° 0 mm 4 mps 760 mmHg 40%
    14:00 +27°C° 0 mm 4 mps 760 mmHg 40%
    15:00 +26°C° 0 mm 5 mps 759 mmHg 44%
    16:00 +25°C° 0 mm 5 mps 759 mmHg 48%
    17:00 +23°C° 0 mm 5 mps 759 mmHg 52%
    18:00 +22°C° 0 mm 5 mps 759 mmHg 58%
    19:00 +20°C° 0 mm 5 mps 759 mmHg 63%
    20:00 +17°C° 0 mm 5 mps 760 mmHg 69%
    21:00 +17°C° 0 mm 5 mps 760 mmHg 71%
    22:00 +16°C° 0 mm 5 mps 760 mmHg 72%
    23:00 +17°C° 0 mm 4 mps 760 mmHg 74%

    21 December, Thursday

    Time Temperature Precipitation Wind Pressure Humidity
    00:00 +15°C° 0 mm 4 mps 759 mmHg 75%
    01:00 +15°C° 0 mm 4 mps 759 mmHg 76%
    02:00 +15°C° 0 mm 4 mps 758 mmHg 77%
    03:00 +15°C° 0 mm 4 mps 758 mmHg 76%
    04:00 +15°C° 0 mm 4 mps 758 mmHg 75%
    05:00 +15°C° 0 mm 4 mps 757 mmHg 74%
    06:00 +18°C° 0 mm 4 mps 757 mmHg 64%
    07:00 +21°C° 0 mm 5 mps 757 mmHg 54%
    08:00 +25°C° 0 mm 5 mps 757 mmHg 44%
    09:00 +28°C° 0 mm 5 mps 756 mmHg 37%
    10:00 +32°C° 0 mm 5 mps 756 mmHg 30%
    11:00 +35°C° 0 mm 4 mps 755 mmHg 23%
    12:00 +36°C° 0 mm 5 mps 754 mmHg 23%
    13:00 +36°C° 0 mm 5 mps 754 mmHg 23%
    14:00 +37°C° 0 mm 5 mps 753 mmHg 23%
    15:00 +35°C° 0 mm 5 mps 753 mmHg 30%
    16:00 +33°C° 0 mm 5 mps 752 mmHg 36%
    17:00 +29°C° 0 mm 4 mps 752 mmHg 43%
    18:00 +27°C° 0 mm 4 mps 752 mmHg 53%
    19:00 +24°C° 0 mm 3 mps 753 mmHg 62%
    20:00 +21°C° 0 mm 3 mps 753 mmHg 72%
    21:00 +20°C° 0 mm 3 mps 753 mmHg 76%
    22:00 +20°C° 0 mm 3 mps 753 mmHg 81%
    23:00 +19°C° 0 mm 4 mps 753 mmHg 85%
    Show more

    XHprof extension not loaded